[[{"header":{"parameterUnit":"m.s-1","parameterCategory":1,"la1":30.2991,"la2":30.254,"lo1":-89.0895,"lo2":-89.0444,"dy":0.0017,"dx":0.0017,"nx":28,"ny":28,"refTime":"2025-05-15T21:00:00:Z","depth":0,"parameterNumber":2,"parameterNumberName":"U-component_of_WINDS"},"data":[0,0,0,0,0,0,0,0,0,0,0,0,0,0,0,0,0,0,0,0,0,0,0,0,0,0,0,0,0,0,0,0,0,0,0,0,0,0,0,0,0,0,0,0,0,0,0,0,0,0,0,0,0,0,0,0,0,0,1.1546,1.1547,0,1.1634,1.1635,1.1636,1.1634,1.1633,1.1632,1.1631,1.1722,1.1725,1.1729,0,0,0,0,0,0,0,0,0,0,0,0,0,1.138,1.1383,1.1546,1.1547,1.1548,1.1633,1.1635,1.1636,1.1635,1.1633,1.1632,1.163,1.1721,1.1725,1.1729,0,0,0,0,0,0,0,0,0,0,0,0,0,1.1458,1.1384,1.1546,1.1558,1.156,1.1633,1.1635,1.1636,1.1635,1.1633,1.1631,1.163,1.1719,1.1724,1.173,1.1797,0,0,1.1746,1.1748,0,0,0,0,0,0,0,0,1.1454,1.1464,1.1555,1.1557,1.156,1.1621,1.1609,1.169,1.1635,1.1606,1.1631,1.1629,1.169,1.1697,1.1718,1.1801,1.1805,1.1746,1.1749,1.1751,1.1753,0,0,0,0,0,0,0,1.1448,1.146,1.1581,1.1556,1.1559,1.1559,1.1569,1.1625,1.1657,1.1609,1.1609,1.1619,1.1691,1.1713,1.172,1.1806,1.1746,1.1751,1.1754,1.1756,1.195,1.1952,0,0,0,0,0,0,1.144,1.1456,1.1578,1.1583,1.1501,1.1564,1.1574,1.1603,1.1656,1.1663,1.1621,1.1619,1.1704,1.1714,1.1723,1.1806,1.1751,1.1756,1.1759,1.1948,1.1951,1.1953,0,0,0,0,0,0,1.1437,1.1451,1.1574,1.152,1.1535,1.1569,1.1601,1.1606,1.1628,1.1665,1.1671,1.1637,1.1703,1.1716,1.1779,1.1809,1.1759,1.1764,1.1946,1.1949,1.1952,1.1971,0,0,0,0,0,0,1.1432,1.145,1.1475,1.152,1.1538,1.1628,1.1603,1.1609,1.1637,1.1635,1.1682,1.1688,1.1703,1.1771,1.1784,1.1815,1.1768,1.1943,1.1947,1.1951,1.1968,1.1974,1.198,0,0,0,0,0,1.1426,1.1478,1.1477,1.1491,1.1571,1.163,1.164,1.1656,1.1639,1.1665,1.1689,1.1687,1.1803,1.1777,1.1792,1.1825,1.1941,1.1946,1.195,1.1965,1.1973,1.198,0,0,0,0,0,0,1.1436,1.1484,1.1483,1.1551,1.1586,1.163,1.1663,1.1664,1.1705,1.1702,1.172,1.1731,1.1794,1.1816,1.1786,1.1893,1.187,1.1878,1.1877,1.1884,1.189,1.1884,1.1772,0,0,0,0,0,1.1446,1.1489,1.1529,1.1585,1.1603,1.163,1.1656,1.1665,1.1703,1.1718,1.1746,1.1783,1.1828,1.1858,1.1901,1.1971,1.1982,1.2001,1.2007,1.2012,1.2019,1.2058,1.2067,1.1968,1.1968,1.1968,0,0,1.1467,1.1498,1.1525,1.1588,1.1616,1.1661,1.1642,1.1691,1.1724,1.1725,1.1786,1.1809,1.1851,1.1918,1.1949,1.1938,1.2048,1.2018,1.2021,1.2025,1.2063,1.2072,1.2081,1.1971,1.197,1.197,0,0,1.1528,1.1557,1.1606,1.1635,1.1678,1.1696,1.1708,1.1752,1.1766,1.1828,1.1829,1.187,1.1947,1.1977,1.2003,1.2076,1.2075,1.209,1.2121,1.2159,1.2167,1.2174,1.22,1.2209,1.2096,1.2096,1.2096,0,1.1549,1.1617,1.1632,1.168,1.1708,1.1711,1.1761,1.1789,1.1844,1.1863,1.1851,1.1948,1.1976,1.205,1.2068,1.2089,1.2103,1.2085,1.2164,1.2172,1.2178,1.2204,1.2213,1.2098,1.2098,1.2097,1.2097,0,1.164,1.1687,1.1722,1.1775,1.1807,1.1856,1.1879,1.191,1.1916,1.1935,1.1998,1.2033,1.2084,1.2102,1.2109,1.2177,1.2169,1.216,1.2138,1.2189,1.2213,1.2223,1.21,1.2099,1.2099,1.2099,0,0,1.171,1.1771,1.1783,1.1808,1.1856,1.1892,1.1942,1.1991,1.2017,1.2055,1.2098,1.2163,1.2155,1.2184,1.2194,1.2228,1.2284,1.2215,1.2216,1.2226,1.2361,1.2368,1.2378,1.2283,1.2285,1.2287,1.2358,0,1.1776,1.1864,1.188,1.1957,1.2,1.2003,1.2047,1.2081,1.2101,1.2141,1.2163,1.2209,1.2195,1.2212,1.2245,1.227,1.2311,1.2265,1.2323,1.2325,1.2312,1.2391,1.2398,1.2463,1.2367,1.2369,1.237,0,1.1865,1.1906,1.1987,1.2029,1.2048,1.2087,1.2133,1.2171,1.2211,1.2223,1.2255,1.2262,1.2314,1.2289,1.2361,1.233,1.2355,1.237,1.2373,1.2379,1.235,1.2399,1.2484,1.2494,1.2385,1.2384,1.2383,0,1.1908,1.1982,1.2041,1.2061,1.2112,1.2139,1.2162,1.22,1.2228,1.2269,1.2288,1.2334,1.236,1.2396,1.2415,1.2395,1.2487,1.2463,1.2498,1.2498,1.2517,1.2516,1.2607,1.2533,1.2533,1.2533,1.2533,0,1.198,1.203,1.206,1.2096,1.2152,1.217,1.2225,1.2247,1.228,1.2321,1.2327,1.2365,1.2388,1.2429,1.2445,1.2503,1.2514,1.2526,1.2529,1.2525,1.2524,1.2541,1.2537,1.2536,1.2535,1.2535,1.2534,0,1.2037,1.2059,1.2123,1.2166,1.2178,1.2218,1.2255,1.229,1.2309,1.2361,1.2374,1.2405,1.2454,1.2477,1.2538,1.2548,1.2614,1.2614,1.26,1.2602,1.2636,1.2632,1.2742,1.2757,1.2673,1.2674,1.2675,0,1.2081,1.212,1.2167,1.2194,1.2217,1.2262,1.2291,1.231,1.234,1.2388,1.2418,1.2467,1.2507,1.2586,1.2614,1.2661,1.2663,1.2698,1.267,1.2664,1.2663,1.2661,1.2665,1.2703,1.2704,1.2704,1.2705,0,1.2158,1.2167,1.2209,1.2255,1.2289,1.2326,1.2363,1.2385,1.241,1.2444,1.2494,1.2525,1.2588,1.2637,1.2686,1.2709,1.2712,1.2714,1.2724,1.272,1.2711,1.2716,1.2614,1.2711,1.271,1.271,1.271,1.2709,1.221,1.2244,1.2283,1.2329,1.2358,1.2392,1.2427,1.2451,1.2494,1.2545,1.2554,1.2608,1.2647,1.2713,1.2738,1.2781,1.2772,1.2788,1.2792,1.2795,1.2797,1.2704,1.279,1.279,1.2789,1.2789,1.2789,0,1.2286,1.2312,1.2354,1.2405,1.2441,1.244,1.248,1.2511,1.2558,1.2594,1.2634,1.2692,1.274,1.2772,1.282,1.2848,1.285,1.286,1.2858,1.2864,1.2802,1.2787,1.2857,1.2857,1.2857,1.2857,1.2857,1.2857,1.2331,1.2388,1.2402,1.2475,1.25,1.2552,1.2575,1.2607,1.2636,1.27,1.2739,1.276,1.2795,1.2846,1.289,1.2898,1.2916,1.2926,1.2934,1.2875,1.2868,1.2861,1.2848,1.293,1.293,1.2992,1.2993,1.2993]},{"header":{"parameterUnit":"m.s-1","parameterCategory":1,"la1":30.2991,"la2":30.254,"lo1":-89.0895,"lo2":-89.0444,"dy":0.0017,"dx":0.0017,"nx":28,"ny":28,"refTime":"2025-05-15T21:00:00:Z","depth":0,"parameterNumber":3,"parameterNumberName":"V-component_of_WINDS"},"data":[0,0,0,0,0,0,0,0,0,0,0,0,0,0,0,0,0,0,0,0,0,0,0,0,0,0,0,0,0,0,0,0,0,0,0,0,0,0,0,0,0,0,0,0,0,0,0,0,0,0,0,0,0,0,0,0,0,0,4.8702,4.8704,0,4.8865,4.8866,4.8868,4.8853,4.8851,4.8848,4.8846,4.9008,4.9014,4.9021,0,0,0,0,0,0,0,0,0,0,0,0,0,4.8375,4.8381,4.8702,4.8704,4.8706,4.8864,4.8867,4.8869,4.8854,4.8851,4.8848,4.8845,4.9006,4.9013,4.9021,0,0,0,0,0,0,0,0,0,0,0,0,0,4.8525,4.8383,4.8702,4.8718,4.8721,4.8864,4.8867,4.8869,4.8855,4.8851,4.8847,4.8844,4.9003,4.9013,4.9023,4.9158,0,0,4.9053,4.9057,0,0,0,0,0,0,0,0,4.8517,4.8537,4.8713,4.8717,4.8721,4.8835,4.8811,4.8966,4.8855,4.8804,4.8846,4.8842,4.8953,4.8967,4.9005,4.9166,4.9173,4.9054,4.906,4.9064,4.9067,0,0,0,0,0,0,0,4.8506,4.853,4.8766,4.8716,4.872,4.8716,4.8733,4.884,4.8897,4.8808,4.8807,4.8827,4.8954,4.8996,4.9009,4.9175,4.9053,4.9062,4.9068,4.9072,4.9457,4.9461,0,0,0,0,0,0,4.8493,4.8521,4.8761,4.8771,4.8608,4.8725,4.8744,4.8802,4.8896,4.8907,4.883,4.8826,4.8981,4.8997,4.9015,4.9181,4.9064,4.9073,4.9079,4.9452,4.9458,4.9462,0,0,0,0,0,0,4.8486,4.8514,4.8754,4.8646,4.8676,4.8734,4.88,4.8807,4.8849,4.8913,4.8922,4.8862,4.8978,4.9001,4.9123,4.9187,4.9078,4.9087,4.9447,4.9454,4.946,4.9515,0,0,0,0,0,0,4.8476,4.8512,4.8565,4.8648,4.8682,4.8862,4.8804,4.8813,4.8867,4.8862,4.8946,4.8956,4.8977,4.9109,4.9133,4.9198,4.9095,4.9442,4.945,4.9458,4.9508,4.9522,4.9535,0,0,0,0,0,4.8465,4.8572,4.8568,4.8597,4.875,4.8866,4.8885,4.8909,4.8872,4.8925,4.8966,4.8953,4.9175,4.9121,4.9149,4.9218,4.9438,4.9448,4.9457,4.9502,4.9519,4.9535,0,0,0,0,0,0,4.8494,4.8584,4.8579,4.8717,4.8784,4.8863,4.8931,4.8927,4.9005,4.8998,4.9022,4.9041,4.9165,4.9203,4.9142,4.9355,4.9302,4.9317,4.9326,4.9343,4.9357,4.9345,4.9103,0,0,0,0,0,4.8517,4.8604,4.8677,4.8792,4.8826,4.8873,4.8924,4.8937,4.9006,4.9034,4.9084,4.9151,4.9236,4.9291,4.9373,4.9513,4.9531,4.9574,4.9587,4.9598,4.9611,4.9689,4.9709,4.9494,4.9493,4.9493,0,0,4.8564,4.8624,4.8677,4.8799,4.8853,4.8942,4.8897,4.8993,4.9059,4.9048,4.9168,4.9207,4.9283,4.9415,4.9476,4.9451,4.9675,4.961,4.9618,4.9626,4.9701,4.9722,4.974,4.95,4.9499,4.9498,0,0,4.8697,4.875,4.8853,4.8908,4.899,4.902,4.9045,4.9125,4.9151,4.9272,4.9266,4.9344,4.949,4.9545,4.9592,4.9747,4.9738,4.9772,4.9844,4.9919,4.9936,4.9951,5.0008,5.0028,4.9785,4.9785,4.9785,0,4.8745,4.8881,4.8905,4.9004,4.9058,4.9053,4.9157,4.9208,4.9312,4.9349,4.932,4.9504,4.9554,4.97,4.9738,4.9776,4.9805,4.9764,4.9932,4.9948,4.9962,5.0016,5.0037,4.9789,4.9789,4.9788,4.9788,0,4.8937,4.9031,4.9104,4.9207,4.9268,4.9368,4.9407,4.9467,4.9474,4.9508,4.9631,4.9692,4.9787,4.9822,4.9829,4.9969,4.9951,4.9927,4.9874,4.9986,5.0037,5.0058,4.9795,4.9793,4.9792,4.9791,0,0,4.9093,4.9209,4.9235,4.9283,4.9373,4.9446,4.9545,4.964,4.9691,4.9762,4.9846,4.997,4.9949,5.0002,5.0016,5.0082,5.0202,5.0049,5.0052,5.0077,5.0361,5.038,5.0404,5.0196,5.02,5.0203,5.0355,0,4.9236,4.9415,4.944,4.9597,4.9685,4.9683,4.9769,4.9834,4.9868,4.9946,4.9982,5.007,5.0035,5.0067,5.0132,5.0173,5.0259,5.0162,5.0274,5.0278,5.0257,5.043,5.045,5.0591,5.0375,5.0379,5.0381,0,4.9426,4.9506,4.9673,4.9753,4.979,4.9868,4.9958,5.0032,5.0105,5.0125,5.0185,5.0191,5.0293,5.0235,5.0377,5.031,5.0357,5.0384,5.039,5.0403,5.0337,5.0449,5.0636,5.0658,5.0412,5.041,5.0408,0,4.9525,4.9673,4.9793,4.9833,4.9929,4.9984,5.0026,5.0095,5.0151,5.0228,5.0264,5.0351,5.0399,5.0466,5.0495,5.045,5.0635,5.0579,5.0655,5.0654,5.0695,5.0692,5.0894,5.0722,5.0722,5.0722,5.0721,0,4.9683,4.9786,4.9839,4.9913,5.0028,5.0055,5.0167,5.0207,5.0269,5.035,5.0351,5.0427,5.0459,5.0539,5.0562,5.0676,5.0697,5.0716,5.0721,5.0717,5.0715,5.0749,5.0741,5.0727,5.0726,5.0725,5.0724,0,4.9814,4.9854,4.9984,5.0065,5.0087,5.0168,5.0237,5.0308,5.0341,5.0443,5.0468,5.052,5.0615,5.065,5.0764,5.0779,5.0912,5.0908,5.0889,5.089,5.0964,5.0957,5.1197,5.123,5.1035,5.1037,5.1038,0,4.9913,4.9992,5.0082,5.0137,5.0182,5.027,5.0327,5.0357,5.0416,5.0506,5.0566,5.0661,5.0738,5.0889,5.0936,5.1024,5.1023,5.1101,5.1036,5.103,5.1026,5.1022,5.103,5.1113,5.1115,5.1117,5.1118,0,5.0084,5.0101,5.0184,5.0275,5.0344,5.0417,5.0487,5.0531,5.0571,5.0638,5.0736,5.0796,5.0914,5.1008,5.1099,5.114,5.1137,5.1138,5.116,5.1158,5.1144,5.1154,5.0923,5.1133,5.1131,5.113,5.1129,5.1129,5.0203,5.0274,5.0349,5.0443,5.0499,5.0565,5.0636,5.0679,5.0762,5.0862,5.0874,5.0979,5.105,5.1171,5.1217,5.1299,5.1278,5.131,5.1318,5.1326,5.1333,5.113,5.1315,5.1315,5.1315,5.1314,5.1314,0,5.0377,5.0425,5.0511,5.061,5.0684,5.0675,5.0752,5.0814,5.0907,5.0975,5.1051,5.1164,5.1256,5.131,5.1402,5.1457,5.1458,5.148,5.1477,5.1487,5.1345,5.1318,5.1479,5.1479,5.1479,5.1478,5.1478,5.1478,5.0476,5.0596,5.0621,5.0769,5.0816,5.0921,5.0967,5.1027,5.1082,5.1208,5.1285,5.1321,5.1383,5.1479,5.1563,5.1576,5.161,5.1635,5.1647,5.1514,5.1497,5.1481,5.1455,5.1642,5.1642,5.1782,5.1784,5.1785]}]]